Regional Weather Roundup
Issued by NWS

Home | Current Version | Previous Version | Graphics & Text | Print | Product List | Glossary On
Versions: 1 2 3 4 5 6 7 8 9 10 11 12 13 14 15 16 17 18 19 20 21 22 23 24 25 26 27 28 29 30 31 32 33 34 35 36 37 38 39 40 41 42 43 44 45 46 47 48 49 50
000
ASUS43 KLMK 020902
RWRKY
KENTUCKY REGIONAL WEATHER ROUNDUP
NATIONAL WEATHER SERVICE LOUISVILLE KY
500 AM EDT WED SEP 02 2015

NOTE "FAIR" INDICATES FEW OR NO CLOUDS BELOW 12,000 FEET
WITH NO SIGNIFICANT WEATHER AND/OR OBSTRUCTIONS TO VISIBILITY.

KYZ001>023-026-027-061>063-070>075-021000-
WESTERN AND SOUTH CENTRAL KENTUCKY

CITY           SKY/WX    TMP DP  RH WIND       PRES   REMARKS
PADUCAH        CLOUDY    69  67  93 CALM      30.08R FOG
HENDERSON      CLEAR     66  63  88 SW3       30.08S
OWENSBORO      PTCLDY    70  69  96 CALM      30.09F
HOPKINSVILLE   CLOUDY    72  68  87 SE3       30.09R
BOWLING GREEN  CLEAR     70  68  93 CALM      30.10S FOG
GLASGOW        NOT AVBL
$$

KYZ024-025-028>034-038-045-046-053-021000-
NORTH CENTRAL KENTUCKY

CITY           SKY/WX    TMP DP  RH WIND       PRES   REMARKS
LOUISVILLE/SDF CLEAR     74  68  81 CALM      30.10R
LOUISVILLE/LOU CLEAR     70  68  93 CALM      30.11S
FORT KNOX      FOG       66  64  94 CALM      30.10S VSB 1
$$

KYZ035>037-039>044-047>052-055>060-089>105-021000-
NORTHEAST KENTUCKY

CITY           SKY/WX    TMP DP  RH WIND       PRES   REMARKS
LEXINGTON      CLEAR     67  64  90 CALM      30.13R
COVINGTON      CLEAR     66  65  96 S3        30.11S FOG
FRANKFORT      NOT AVBL
$$

KYZ054-064>069-076>088-106>120-021000-
SOUTHEAST KENTUCKY

CITY           SKY/WX    TMP DP  RH WIND       PRES   REMARKS
JACKSON        CLEAR     69  67  93 CALM      30.15S FOG
LONDON         CLEAR     67  62  84 CALM      30.14S
SOMERSET       NOT AVBL
MIDDLESBORO    FOG       65  65 100 CALM      30.15F VSB 3/4
MONTICELLO     FOG       63  63 100 CALM      30.16S VSB<1/4
$$




USA.gov is the U.S. government's official web portal to all federal, state and local government web resources and services.